SL-14 DEB, 45293

Orbit data source: Space-Track

SL-14 DEB, 45293 is space debris in LEO originally from a launch on Thu, 15 Aug 1991 UTC launched from the Plesetsk Missile And Space Complex (PKMTR). Debris objects in space refer to the collection of defunct objects orbiting the Earth. Examples of debris include non-operational satellites, rocket bodies, and fragments generated from explosions, collisions, or faulty payload assembly.

Loading next visibility...
SL-14 DEB details
Identifier
45293, 1991-056AF
Orbit
LEO
Last TLE update23 hours ago
Origin
Flag of CISRosgidromet (CIS)
ManufacturerUnknown
MissionSpacecraft
Bus & MotorUnknown
MassUnknown
Launch date (UTC)
1991-08-15 (33 years ago)
Launch vehicleUnknown
Launch site
Plesetsk Missile And Space Complex (PKMTR)
Object type
Payload
Rocket body
Debris
Shape & HBRUnknown
Radar Cross SectionSmall (<0.1 m²)

Expand to show TLE details & history

TLE from 23 hours ago
0 SL-14 DEB
1 45293U 91056AF  24360.48310822  .00045961  00000-0  25251-1 0  9998
2 45293  82.5357  39.2552 0171668 284.1273  74.0875 14.04235497242476
Epoch: 2024-12-25T11:35Z
Definitive object data (Epoch: 2024-12-25T11:35:40.55Z)
Latitude0.00001°
Longitude130.86003°
Altitude849.924 km
Speed7.444 km/s
True Right ascension02h 37m 01s
True Declination0° 00' 00"
Sunlit
Object was in full shadow at TLE epoch
Visualization TLE readout
Latitude73.60184°
Longitude-76.21013°
Altitude1,015.806 km
Speed7.287 km/s
Apparent Right ascension20h 05m 56s
Apparent Declination38° 21' 29"
Sunlit
Object is in daylight
Visualization observer readout
Local Sidereal Time09:41:03
Azimuth18.658° NNE
Elevation-8.753°
Doppler factor1
Orbital elements
Apogee altitude1,000.824 km
Perigee altitude751.753 km
Semi-major axis7,254.426 km
Eccentricity0.0171668
Inclination82.5357°
RAAN39.2552°
Arg. of periapsis284.1273°
True anomaly75.99013°
Mean anomaly74.0875°
Eccentric anomaly75.03774°
Mean motion3.51268 °/min
BSTAR0.025251
Orbital period102.49 mins
Loading maneuver chart data...
Loading historical data...
Loading historical data...
Loading historical data...
Loading historical data...
Loading historical data...
Loading historical data...
Loading historical data...

SL-14 DEB Visibility forecast

Observer location: undefined°, undefined

Span
Click to sort rows by Start time (UTC) header in descending order
Start Az.
Max El. time (UTC)
Max El. Az.
Max El.
End time (UTC)
End Az.
10 mins2024-12-26 13:49:53.820Z13.422° NNE2024-12-26 13:54:53.820Z76.252° E30.079°2024-12-26 13:59:53.820Z137.136° SSE
9 mins2024-12-26 15:33:53.820Z327.032° NNW2024-12-26 15:37:53.820Z275.777° WNW29.332°2024-12-26 15:42:53.820Z212.82° SW
10 mins2024-12-27 03:02:53.820Z162.523° S2024-12-27 03:06:53.820Z92.116° ESE39.484°2024-12-27 03:12:53.820Z16.406° NNE
7 mins2024-12-27 04:47:53.820Z256.438° W2024-12-27 04:50:53.820Z293.833° NW20.098°2024-12-27 04:54:53.820Z336.525° NNW
|